| time (UTC) | temp C | wind direction | speed KPH | gust KPH | rain 1hr cm | rain 24hr cm | rain mn cm | humidity % | barometer mb |
| 20260504194539 | 25 | 248 | 1.6 | 6.4 | 0.00 | 0.00 | 0.00 | 26 | 1011.3 |
| 20260504193539 | 25 | 270 | 1.6 | 17.7 | 0.00 | 0.00 | 0.00 | 28 | 1011.5 |
| 20260504192539 | 25 | 0.0 | 3.2 | 0.00 | 0.00 | 0.00 | 27 | 1011.6 | |
| 20260504191559 | 24 | 0.0 | 4.8 | 0.00 | 0.00 | 0.00 | 27 | 1011.6 | |
| 20260504190526 | 24 | 0.0 | 3.2 | 0.00 | 0.00 | 0.00 | 29 | 1011.8 | |
| 20260504185526 | 25 | 0.0 | 3.2 | 0.00 | 0.00 | 0.00 | 27 | 1011.8 | |
| 20260504184539 | 26 | 270 | 1.6 | 9.7 | 0.00 | 0.00 | 0.00 | 27 | 1012.0 |
| 20260504183559 | 26 | 248 | 1.6 | 9.7 | 0.00 | 0.00 | 0.00 | 27 | 1012.1 |
| 20260504182619 | 25 | 0.0 | 3.2 | 0.00 | 0.00 | 0.00 | 27 | 1012.2 | |
| 20260504181539 | 25 | 248 | 1.6 | 14.5 | 0.00 | 0.00 | 0.00 | 26 | 1012.3 |
| 20260504180539 | 25 | 270 | 1.6 | 8.0 | 0.00 | 0.00 | 0.00 | 27 | 1012.5 |
| 20260504175526 | 25 | 225 | 1.6 | 9.7 | 0.00 | 0.00 | 0.00 | 26 | 1012.5 |
| 20260504174526 | 24 | 225 | 1.6 | 6.4 | 0.00 | 0.00 | 0.00 | 25 | 1012.6 |
| 20260504173639 | 23 | 248 | 1.6 | 14.5 | 0.00 | 0.00 | 0.00 | 28 | 1012.7 |
| 20260504172539 | 24 | 248 | 3.2 | 25.7 | 0.00 | 0.00 | 0.00 | 26 | 1012.8 |
| 20260504171539 | 23 | 270 | 1.6 | 11.3 | 0.00 | 0.00 | 0.00 | 27 | 1012.9 |
| 20260504170526 | 23 | 270 | 3.2 | 9.7 | 0.00 | 0.00 | 0.00 | 31 | 1013.0 |
| 20260504150526 | 20 | 248 | 1.6 | 9.7 | 0.00 | 0.00 | 0.00 | 43 | 1014.1 |
| 20260504140538 | 17 | 0.0 | 3.2 | 0.00 | 0.00 | 0.00 | 52 | 1014.5 | |
| 20260504130538 | 15 | 270 | 1.6 | 9.7 | 0.00 | 0.00 | 0.00 | 60 | 1014.9 |
| 20260504110538 | 11 | 0.0 | 0.0 | 0.00 | 0.00 | 0.00 | 77 | 1015.3 | |
| 20260504100537 | 10 | 0.0 | 0.0 | 0.00 | 0.00 | 0.00 | 79 | 1015.3 | |
| 20260504081524 | 10 | 0.0 | 0.0 | 0.00 | 0.00 | 0.00 | 84 | 1015.6 | |
| 20260504080537 | 10 | 0.0 | 1.6 | 0.00 | 0.00 | 0.00 | 84 | 1015.6 | |
| 20260504050527 | 7 | 0.0 | 0.0 | 0.00 | 0.00 | 0.00 | 81 | 1016.0 | |
| 20260504045540 | 6 | 0.0 | 0.0 | 0.00 | 0.00 | 0.00 | 84 | 1015.9 | |
| 20260504044539 | 6 | 0.0 | 0.0 | 0.00 | 0.00 | 0.00 | 86 | 1015.9 | |
| 20260504043540 | 5 | 0.0 | 0.0 | 0.00 | 0.00 | 0.00 | 86 | 1015.9 | |
| 20260504042540 | 6 | 0.0 | 0.0 | 0.00 | 0.00 | 0.00 | 85 | 1015.9 | |
| 20260504041540 | 6 | 0.0 | 0.0 | 0.00 | 0.00 | 0.00 | 85 | 1015.9 | |
| 20260504040526 | 6 | 0.0 | 0.0 | 0.00 | 0.00 | 0.00 | 84 | 1016.0 | |
| 20260504035539 | 6 | 0.0 | 0.0 | 0.00 | 0.00 | 0.00 | 84 | 1016.0 | |
| 20260504034538 | 6 | 0.0 | 0.0 | 0.00 | 0.00 | 0.00 | 84 | 1015.9 | |
| 20260504033538 | 6 | 0.0 | 0.0 | 0.00 | 0.00 | 0.00 | 85 | 1015.7 | |
| 20260504032525 | 6 | 0.0 | 0.0 | 0.00 | 0.00 | 0.00 | 84 | 1015.7 | |
| 20260504031526 | 6 | 0.0 | 0.0 | 0.00 | 0.00 | 0.00 | 83 | 1015.8 | |
| 20260504030538 | 6 | 0.0 | 0.0 | 0.00 | 0.00 | 0.00 | 82 | 1015.8 | |
| 20260504025559 | 6 | 0.0 | 0.0 | 0.00 | 0.00 | 0.00 | 81 | 1015.7 | |
| 20260504024539 | 7 | 0.0 | 0.0 | 0.00 | 0.00 | 0.00 | 81 | 1015.6 | |
| 20260504023526 | 7 | 0.0 | 0.0 | 0.00 | 0.00 | 0.00 | 81 | 1015.7 | |
| 20260504022538 | 7 | 0.0 | 0.0 | 0.00 | 0.00 | 0.00 | 80 | 1015.8 | |
| 20260504021525 | 7 | 0.0 | 0.0 | 0.00 | 0.00 | 0.00 | 79 | 1015.7 | |
| 20260504020538 | 7 | 0.0 | 0.0 | 0.00 | 0.00 | 0.00 | 77 | 1015.6 | |
| 20260504015538 | 7 | 0.0 | 0.0 | 0.00 | 0.00 | 0.00 | 74 | 1015.6 | |
| 20260504014538 | 8 | 0.0 | 0.0 | 0.00 | 0.00 | 0.00 | 72 | 1015.5 | |
| 20260504013558 | 8 | 0.0 | 0.0 | 0.00 | 0.00 | 0.00 | 71 | 1015.5 | |
| 20260504012525 | 8 | 0.0 | 0.0 | 0.00 | 0.00 | 0.00 | 69 | 1015.4 | |
| 20260504011538 | 9 | 0.0 | 0.0 | 0.00 | 0.00 | 0.00 | 68 | 1015.3 | |
| 20260504010525 | 9 | 0.0 | 0.0 | 0.00 | 0.00 | 0.00 | 66 | 1015.3 | |
| 20260504005538 | 10 | 0.0 | 0.0 | 0.00 | 0.00 | 0.00 | 63 | 1015.3 | |
| 20260504004538 | 10 | 0.0 | 0.0 | 0.00 | 0.00 | 0.00 | 61 | 1015.1 | |
| 20260504003545 | 10 | 0.0 | 0.0 | 0.00 | 0.00 | 0.00 | 58 | 1015.0 | |
| 20260504002538 | 11 | 0.0 | 0.0 | 0.00 | 0.00 | 0.00 | 55 | 1014.9 | |
| 20260504001538 | 12 | 0.0 | 0.0 | 0.00 | 0.00 | 0.00 | 51 | 1014.7 | |
| 20260504000525 | 12 | 0.0 | 0.0 | 0.00 | 0.00 | 0.00 | 48 | 1014.6 | |
| 20260503235637 | 13 | 0.0 | 0.0 | 0.00 | 0.00 | 0.00 | 46 | 1014.5 | |
| 20260503234558 | 13 | 0.0 | 0.0 | 0.00 | 0.00 | 0.00 | 41 | 1014.4 | |
| 20260503233537 | 14 | 0.0 | 0.0 | 0.00 | 0.00 | 0.00 | 40 | 1014.4 | |
| 20260503232525 | 15 | 0.0 | 0.0 | 0.00 | 0.00 | 0.00 | 37 | 1014.4 | |
| 20260503231537 | 15 | 0.0 | 0.0 | 0.00 | 0.00 | 0.00 | 35 | 1014.3 | |
| 20260503230537 | 16 | 0.0 | 0.0 | 0.00 | 0.00 | 0.00 | 31 | 1014.2 | |
| 20260503225537 | 17 | 0.0 | 0.0 | 0.00 | 0.00 | 0.00 | 29 | 1014.2 | |
| 20260503224617 | 17 | 0.0 | 0.0 | 0.00 | 0.00 | 0.00 | 30 | 1014.3 | |
| 20260503223537 | 17 | 0.0 | 0.0 | 0.00 | 0.00 | 0.00 | 28 | 1014.3 | |
| 20260503222537 | 17 | 0.0 | 3.2 | 0.00 | 0.00 | 0.00 | 29 | 1014.2 | |
| 20260503221538 | 17 | 0.0 | 4.8 | 0.00 | 0.00 | 0.00 | 28 | 1014.3 | |
| 20260503220537 | 17 | 0.0 | 4.8 | 0.00 | 0.00 | 0.00 | 28 | 1014.3 | |
| 20260503215525 | 17 | 0.0 | 3.2 | 0.00 | 0.00 | 0.00 | 29 | 1014.3 | |
| 20260503214537 | 17 | 0.0 | 6.4 | 0.00 | 0.00 | 0.00 | 28 | 1014.2 | |
| 20260503213538 | 17 | 225 | 1.6 | 9.7 | 0.00 | 0.00 | 0.00 | 28 | 1014.2 |
| 20260503212525 | 17 | 248 | 1.6 | 6.4 | 0.00 | 0.00 | 0.00 | 27 | 1014.2 |
| 20260503211537 | 17 | 248 | 4.8 | 22.5 | 0.00 | 0.00 | 0.00 | 27 | 1014.3 |
| 20260503210527 | 17 | 0.0 | 6.4 | 0.00 | 0.00 | 0.00 | 29 | 1014.3 | |
| 20260503205526 | 17 | 225 | 1.6 | 6.4 | 0.00 | 0.00 | 0.00 | 28 | 1014.2 |
| 20260503204619 | 17 | 0.0 | 4.8 | 0.00 | 0.00 | 0.00 | 28 | 1014.2 | |
| 20260503203539 | 17 | 0.0 | 6.4 | 0.00 | 0.00 | 0.00 | 28 | 1014.1 | |
| 20260503202539 | 17 | 0.0 | 3.2 | 0.00 | 0.00 | 0.00 | 31 | 1014.1 | |
| 20260503201540 | 17 | 225 | 1.6 | 9.7 | 0.00 | 0.00 | 0.00 | 28 | 1014.2 |
| 20260503200526 | 17 | 0.0 | 4.8 | 0.00 | 0.00 | 0.00 | 29 | 1014.4 | |
| 20260503195527 | 17 | 225 | 1.6 | 22.5 | 0.00 | 0.00 | 0.00 | 28 | 1014.6 |